Location: Palomar Mountain Lodge
(33.3110°N, 116.8495°W)
Time: 09:11:26
(UTC-07:00)

MOZHAYETS 4 - Pass Details

Date: 19 April 2026
Orbit: 642 x 659 km, 98.3° (Epoch: 14 May)

Event Time Altitude Azimuth Distance (km) Brightness Sun altitude
Rises 05:40:52 0° 157° (SSE) 2,949 11.1 -7.1°
Reaches altitude 10° 05:43:06 10° 153° (SSE) 2,040 10.3 -6.7°
Maximum altitude 05:47:27 57° 75° (ENE) 759 8.5 -5.8°
Drops below altitude 10° 05:51:49 10° 357° (N) 2,043 10.4 -5.0°
Sets 05:54:03 0° 353° (N) 2,955 11.2 -4.5°
